Satellite-Ground Cal/Val Region Overpasses Predictions

Prediction of Satellite NPP Overpassing Cal/Val Region: PacNW

Region Location: (Latitude: 10.00, Longitude: 139.50) to (Latitude: 22.70, Longitude: 165.60).

Table of predicted overpasses for the next 14.0 days since TLE Epoch: 12/4/2021
Interval Starting Time Starting Location Ending Time Ending Location
1 12/04/2021 02:11:31 ( 18.67, 165.59) 12/04/2021 02:12:39 ( 22.66, 164.61)
2 12/04/2021 03:50:34 ( 10.05, 142.24) 12/04/2021 03:53:51 ( 21.61, 139.50)
3 12/04/2021 14:40:56 ( 22.65, 164.84) 12/04/2021 14:44:31 ( 10.03, 161.84)
4 12/05/2021 03:31:30 ( 10.01, 147.00) 12/05/2021 03:35:06 ( 22.69, 143.99)
5 12/05/2021 16:03:23 ( 22.67, 144.23) 12/05/2021 16:06:58 ( 10.05, 141.23)
6 12/06/2021 03:12:28 ( 10.04, 151.76) 12/06/2021 03:16:03 ( 22.66, 148.76)
7 12/06/2021 15:44:21 ( 22.64, 148.98) 12/06/2021 15:47:56 ( 10.02, 145.98)
8 12/07/2021 02:53:24 ( 10.01, 156.52) 12/07/2021 02:57:00 ( 22.69, 153.51)
9 12/07/2021 15:25:17 ( 22.67, 153.75) 12/07/2021 15:28:52 ( 10.05, 150.75)
10 12/08/2021 02:34:22 ( 10.04, 161.28) 12/08/2021 02:37:57 ( 22.66, 158.28)
11 12/08/2021 15:06:15 ( 22.64, 158.50) 12/08/2021 15:09:50 ( 10.02, 155.50)
12 12/09/2021 02:15:52 ( 12.01, 165.59) 12/09/2021 02:18:54 ( 22.69, 163.03)
13 12/09/2021 03:56:48 ( 10.02, 140.67) 12/09/2021 03:58:14 ( 15.08, 139.50)
14 12/09/2021 14:47:11 ( 22.67, 163.27) 12/09/2021 14:50:46 ( 10.05, 160.27)
15 12/10/2021 03:37:46 ( 10.05, 145.42) 12/10/2021 03:41:21 ( 22.68, 142.42)
16 12/10/2021 14:31:02 ( 12.49, 165.59) 12/10/2021 14:31:44 ( 10.02, 165.02)
17 12/10/2021 16:09:38 ( 22.69, 142.66) 12/10/2021 16:13:14 ( 10.01, 139.65)
18 12/11/2021 03:18:42 ( 10.03, 150.19) 12/11/2021 03:22:17 ( 22.65, 147.19)
19 12/11/2021 15:50:35 ( 22.66, 147.41) 12/11/2021 15:54:10 ( 10.04, 144.41)
20 12/12/2021 02:59:40 ( 10.06, 154.94) 12/12/2021 03:03:15 ( 22.68, 151.94)
21 12/12/2021 15:31:32 ( 22.68, 152.18) 12/12/2021 15:35:08 ( 10.00, 149.17)
22 12/13/2021 02:40:36 ( 10.03, 159.71) 12/13/2021 02:44:11 ( 22.65, 156.71)
23 12/13/2021 15:12:29 ( 22.65, 156.93) 12/13/2021 15:16:04 ( 10.03, 153.93)
24 12/14/2021 02:21:33 ( 10.01, 164.48) 12/14/2021 02:25:09 ( 22.69, 161.46)
25 12/14/2021 14:53:26 ( 22.68, 161.70) 12/14/2021 14:57:01 ( 10.06, 158.70)
26 12/15/2021 03:44:01 ( 10.05, 143.85) 12/15/2021 03:47:36 ( 22.67, 140.85)
27 12/15/2021 14:35:23 ( 19.13, 165.59) 12/15/2021 14:37:58 ( 10.02, 163.45)
28 12/15/2021 16:15:52 ( 22.69, 141.09) 12/15/2021 16:17:43 ( 16.18, 139.51)
29 12/16/2021 03:24:57 ( 10.02, 148.62) 12/16/2021 03:28:32 ( 22.65, 145.62)
30 12/16/2021 15:56:50 ( 22.66, 145.84) 12/16/2021 16:00:25 ( 10.04, 142.84)
31 12/17/2021 03:05:55 ( 10.06, 153.37) 12/17/2021 03:09:30 ( 22.68, 150.37)
